Reflectivity
-20 -20 -20 -20 -20 -20 -20 -20 -20 -19 -20 -20 -20 -20 -20 -20 -20 -20 -20 -20 -20 -20 -20 -2 1 2 8 8 13 10 17 12 15 20 19 12 11 18
-20 -20 -20 -20 -20 -20 -20 -20 -20 -20 -15 -20 -20 -20 -20 -20 -20 -20 -20 -20 -20 -20 -20 -19 -14 -14 1 8 15 16 12 15 15 18 19 17 21 12
-20 -20 -20 -20 -20 -20 -20 -20 -20 -20 -14 -20 -20 -20 -20 -20 -20 -20 -20 -20 -20 -20 -20 -20 -20 7 12 15 12 4 7 10 11 11 14 15 17 20
-20 -20 -20 -20 -20 -20 -20 -20 -20 -20 -20 -5 -20 -20 -20 -20 -20 -20 -20 -20 -20 -20 -20 -20 -20 -15 -2 -19 -0 3 6 3 7 4 11 12 11 12
-20 -20 -20 -20 -20 -20 -20 -20 -20 -20 -11 5 -14 -17 -20 -20 -17 -16 -9 -19 -20 -20 -20 -20 -20 -20 -17 -17 -1 -2 -6 -5 -4 -1 -2 5 8 10
-20 -20 -20 -20 -20 -20 -20 -15 -12 -1 -3 3 -1 -7 0 -3 -12 -20 -20 -12 -1 -14 -20 -20 -20 -20 -20 -4 -13 -20 -20 -20 -17 -14 0 6 7 8
-20 -20 -20 -20 -20 -20 -20 -20 -9 -1 1 7 6 4 -3 -20 -10 -17 -2 -5 3 -2 -3 2 4 -1 -16 -20 -20 -20 -20 -20 -20 -11 -6 4 8 7
-20 -20 -20 -20 -20 -20 -20 -20 -5 5 8 11 9 -1 -20 -20 -18 -9 7 10 0 -20 1 0 -3 -10 -20 -20 -20 -20 -20 -20 -20 -4 -7 3 13 14
-20 -20 -20 -20 -20 -20 -20 -20 -4 1 -7 -10 -4 -20 -19 -8 2 8 8 10 9 -5 5 7 -20 -2 -20 -20 -20 -20 -20 -14 1 3 6 9 13 16
-20 -20 -20 -20 -20 -20 -20 -9 -20 -20 -20 -20 -20 -14 -8 2 2 4 5 -6 4 -0 3 -17 -20 -20 -20 -20 -20 -20 -20 -10 2 5 5 11 14 16
-20 -20 -20 -20 -20 -16 -20 -20 -20 -20 -20 -20 -20 -20 -20 -20 -15 -3 5 7 -20 -20 -19 -20 5 -18 -20 -20 -20 -20 -4 1 4 16 16 16 17 19
-20 -20 -20 -20 -20 -20 -20 -20 -20 -20 -19 -20 -20 -20 -20 -20 -20 -2 -2 -3 -12 -10 -20 -20 -18 -15 -4 -20 -20 -20 -20 -8 7 18 16 16 20 21
-20 -20 -20 -20 -20 -20 -20 -20 -20 -4 -20 -20 -16 -13 -7 -14 -7 -2 -5 -3 -0 -9 -20 -20 -7 -12 -16 -10 -20 -20 11 19 10 10 14 15 17 20
-20 -20 -20 -20 -20 -20 -20 -20 -20 -20 -20 -2 3 3 -20 -13 -13 -20 -20 -19 -6 -9 -20 -20 5 -9 1 9 3 -14 -2 11 26 14 6 8 14 7
-20 -20 -20 -20 -20 -20 -20 -20 -20 -20 -3 4 -20 -20 -2 -2 -3 1 -18 -20 -20 -10 -19 -20 -18 3 19 20 11 -3 8 -1 11 14 13 7 2 11
-20 -20 -20 -20 -20 -20 -20 -20 -20 -19 2 4 -20 -19 -2 -20 -3 1 -19 -20 -20 -20 -20 -20 -17 21 22 14 11 8 3 21 18 17 1 -16 2 18
-20 -20 -20 -20 -20 -20 -20 -20 -20 -20 -20 -19 -19 -5 -5 -20 -20 -7 -19 -20 -19 -20 -20 -20 -14 7 13 19 16 13 24 22 34 29 7 -12 -8 -2
-20 -20 -20 -20 -20 -20 -20 -20 -19 -17 -9 -13 5 7 -20 -3 -19 -20 -19 -20 -20 -20 -20 -20 1 -19 1 19 29 24 20 26 37 33 13 -6 -5 -3
-20 -20 -20 -20 -20 -20 -6 -20 -20 -20 -11 -16 -16 -19 -19 -19 -20 -19 -19 -20 -20 -20 -20 -14 9 4 5 -9 13 30 27 24 30 36 34 18 6 -18
-20 -20 -20 -20 -7 -9 -20 -20 -20 -20 -6 -12 -20 -12 -20 5 5 -17 -20 -20 -19 -16 -20 -20 -14 10 15 22 20 23 33 30 37 36 38 38 33 3
-20 -20 -20 -20 -5 -7 -16 -11 -20 -20 2 -20 -19 -20 -20 1 3 5 -16 -20 -20 -20 -14 1 -5 -5 7 20 22 20 36 38 38 44 42 40 39 15
-20 -20 -20 -20 -20 -20 -20 -20 -20 -20 -20 -20 -20 -20 2 4 2 6 5 -20 -20 -20 -8 -20 -19 -8 7 15 10 16 28 39 40 39 35 31 27 16
-20 -20 -20 -20 -20 -20 -20 -20 -20 -20 -20 -20 -20 -20 2 10 5 7 7 -20 -20 -20 -15 -10 -20 -8 8 19 17 13 26 26 33 36 36 28 18 7
Wind_Speed
5 5 4 4 5 5 6 7 8 8 11 7 10 10 12 13 16 17 18 26 31 32 32 32 33 32 33 33 34 34 34 35 34 34 34 34 34 34
4 5 5 5 6 6 7 8 9 11 12 9 13 16 16 14 17 18 18 29 30 31 32 32 33 34 34 34 33 34 34 35 35 36 35 35 34 34
6 6 6 7 6 6 7 8 9 10 13 14 14 15 19 19 17 17 16 17 16 29 30 32 34 35 34 34 35 35 35 34 34 35 35 34 33 34
6 6 7 5 8 9 8 11 11 12 12 19 16 14 18 20 19 19 15 13 15 22 31 34 35 36 36 35 35 34 35 35 35 35 34 34 34 33
6 7 6 7 8 8 9 10 10 10 11 13 17 14 15 15 17 16 15 16 13 25 31 33 34 34 34 34 34 35 35 35 36 36 36 34 35 34
6 6 7 8 9 10 9 12 12 10 13 13 14 15 14 15 14 16 14 12 13 14 22 27 32 32 34 33 33 35 35 35 37 36 35 33 33 34
6 6 7 8 11 13 10 12 13 12 11 13 15 15 14 14 15 14 16 16 14 15 14 14 12 14 15 26 30 34 35 35 35 35 35 34 34 35
5 6 6 8 10 14 17 19 18 14 14 13 14 17 19 16 15 15 17 16 20 11 13 17 15 16 15 14 30 35 36 36 37 36 37 37 37 37
5 5 6 6 9 10 14 19 19 22 22 17 18 17 20 18 19 20 19 18 17 16 17 18 15 16 15 16 33 36 37 37 38 38 38 37 38 37
5 6 7 9 9 11 14 14 15 16 16 13 16 17 18 18 19 18 20 21 18 15 15 18 17 17 16 16 33 38 38 38 39 39 39 38 37 36
4 6 7 10 12 17 15 14 16 15 15 23 27 29 31 30 25 15 13 15 17 15 13 16 15 17 18 19 19 33 35 36 35 37 38 38 36 34
4 6 8 9 16 18 13 14 14 15 16 18 16 18 21 19 25 15 14 15 15 18 13 14 16 17 17 14 15 14 17 30 34 34 37 37 35 17
4 5 5 11 16 17 17 12 14 18 18 14 14 13 13 13 12 12 14 14 15 17 21 16 17 18 16 22 13 15 15 16 14 17 28 32 32 26
5 5 6 15 16 17 14 18 22 20 10 12 12 12 13 13 13 14 18 17 16 20 22 21 17 19 20 21 24 18 15 14 12 13 12 18 25 28
4 7 12 13 14 12 16 19 18 10 10 12 13 12 12 14 17 16 15 20 19 20 17 20 17 20 16 18 24 20 21 15 12 11 10 8 8 9
3 5 8 9 10 11 11 12 10 10 11 12 12 13 13 13 14 14 14 15 15 16 18 18 20 18 15 16 17 21 16 11 11 11 7 7 8 10
4 3 4 6 7 8 9 10 10 10 11 12 12 14 13 14 14 14 13 14 15 17 18 16 17 17 15 19 17 16 15 14 12 11 6 7 8 7
2 4 5 6 8 9 10 11 11 14 11 13 13 13 14 14 15 14 13 13 15 16 18 18 18 18 13 11 15 13 12 12 13 12 8 9 9 11
4 5 6 7 8 9 9 11 12 12 13 11 13 14 14 14 19 15 14 14 16 16 17 17 16 17 19 20 14 10 15 15 14 11 10 12 11 13
4 5 6 7 8 9 9 10 11 11 11 12 13 13 14 14 15 15 14 16 16 17 17 14 15 15 17 18 20 18 24 14 13 9 4 11 8 16
4 5 6 7 8 9 9 9 11 11 14 13 12 13 14 14 15 15 15 25 25 16 18 16 16 31 14 13 12 11 11 21 16 6 5 8 16 15
4 6 7 7 8 9 10 9 11 12 12 12 13 14 14 13 14 16 14 15 15 16 16 15 16 14 13 13 15 16 11 10 14 28 28 11 18 15
5 6 7 8 8 9 9 10 11 12 13 14 14 15 14 15 15 14 14 14 15 16 15 15 14 13 13 12 17 11 14 12 9 17 20 29 33 28
Wind_Direction
191 203 225 240 243 250 257 265 279 296 303 296 299 305 304 300 291 293 292 290 292 293 294 292 292 291 288 287 287 285 284 284 283 279 278 275 276 275
196 210 224 239 247 254 258 262 260 268 276 292 295 297 295 293 293 291 287 287 287 290 290 289 291 288 286 285 286 285 285 282 282 279 278 275 271 271
199 214 233 244 254 262 263 264 267 270 276 283 290 295 296 297 295 292 289 286 283 285 288 290 290 288 285 283 284 287 286 281 280 280 278 276 274 272
211 216 234 244 257 265 269 274 277 281 283 290 292 298 295 298 294 293 290 287 290 289 292 293 288 286 286 285 283 284 281 280 278 280 277 275 275 271
216 227 244 253 265 273 278 283 284 285 289 289 294 292 293 297 297 296 299 296 295 299 293 289 288 289 287 283 281 281 280 276 281 281 278 274 273 269
220 236 251 260 273 284 289 285 278 283 291 288 292 295 297 302 303 306 301 296 295 288 286 286 285 283 281 279 277 283 277 278 278 274 270 269 269 267
225 243 256 269 279 275 282 289 294 292 295 293 294 298 303 308 306 310 299 303 298 293 295 290 287 283 277 281 277 278 277 276 274 272 269 268 266 264
236 258 272 276 275 282 283 291 289 293 291 293 296 298 301 305 306 308 303 307 304 292 297 292 282 280 279 276 279 279 278 276 273 270 267 264 262 261
246 272 285 289 290 292 296 288 290 290 292 298 297 297 303 306 303 304 303 298 296 298 293 288 288 281 282 278 281 281 278 275 272 270 266 262 262 258
257 282 292 299 294 299 293 297 299 298 298 300 295 296 290 294 299 303 301 294 286 283 285 284 288 285 287 281 280 281 278 276 272 269 267 263 259 255
283 286 295 296 304 303 309 306 305 303 305 301 296 302 304 303 301 302 298 301 295 294 293 285 290 292 291 284 276 274 275 275 272 272 268 265 260 254
291 288 282 294 306 313 315 313 308 312 310 308 310 308 303 300 302 296 296 292 293 296 291 300 296 295 295 285 273 280 277 278 277 273 272 267 256 245
294 295 298 308 317 321 317 311 310 316 314 315 308 300 301 303 300 295 291 287 287 284 288 296 294 291 281 300 287 287 286 284 273 266 266 260 253 236
286 299 306 322 321 321 319 317 322 324 315 306 302 306 311 308 303 299 293 284 275 275 286 285 284 288 290 293 295 303 292 284 271 261 255 250 246 228
299 317 316 319 325 320 322 323 326 320 308 306 312 311 309 303 301 299 299 299 294 286 283 281 281 285 284 292 297 301 302 300 287 264 257 245 222 204
335 314 327 324 322 319 326 329 324 315 311 310 310 310 307 310 306 307 309 311 303 299 292 294 290 288 294 286 288 292 291 282 289 282 265 223 210 175
343 329 334 334 331 337 332 325 317 317 318 319 316 309 312 314 308 309 307 312 302 306 307 308 300 296 292 290 288 286 291 287 285 281 217 204 184 194
11 345 341 337 340 339 330 320 321 320 319 317 309 310 315 312 311 311 311 312 308 307 308 312 314 312 305 286 264 293 287 289 297 289 202 191 184 184
24 354 332 338 341 336 326 321 318 319 315 310 310 314 309 310 315 311 313 315 311 309 309 313 322 321 321 318 315 292 302 304 303 285 200 196 178 176
15 341 331 338 333 325 323 317 317 315 312 312 315 308 310 310 311 313 314 317 314 311 313 316 324 323 318 316 311 308 307 302 303 285 243 190 189 163
357 331 328 327 323 319 318 315 315 313 316 315 309 309 309 310 311 311 311 321 319 314 315 323 322 319 306 299 305 315 311 320 344 342 305 169 163 156
350 330 327 321 322 321 319 314 313 313 316 313 312 307 308 309 308 314 314 317 315 313 312 318 323 323 320 320 321 327 327 329 337 29 23 46 143 143
339 327 324 325 324 324 316 316 314 312 313 312 310 309 309 318 314 313 313 316 313 314 320 324 328 329 326 327 330 336 343 357 13 49 35 56 86 99